Regional Weather Roundup
Issued by NWS Albany, NY

Home | Current Version | Previous Version | Graphics & Text | Print | Product List | Glossary On
Versions: 1 2 3 4 5 6 7 8 9 10 11 12 13 14 15 16 17 18 19 20 21 22 23 24 25 26 27
000
ASUS41 KALY 261610
RWRALY

NEW YORK STATE HOURLY WEATHER ROUNDUP
NATIONAL WEATHER SERVICE ALBANY NY
1200 PM EDT THU MAY 26 2016

NOTE: "FAIR" INDICATES FEW OR NO CLOUDS BELOW 12,000 FEET WITH NO
SIGNIFICANT WEATHER AND/OR NO OBSTRUCTIONS TO VISIBILITY.

NYZ032-033-038>043-046>054-057>066-NYZ062>081-082-084-261700-
EAST


CITY           SKY/WX    TMP DP  RH WIND       PRES   REMARKS
ALBANY         CLOUDY    78  58  49 VRB3      30.10S
GLENS FALLS    PTSUNNY   76  54  46 CALM      30.10S
POUGHKEEPSIE   PTSUNNY   84  57  39 CALM      30.07F
NEWBURGH       SUNNY     84  61  45 CALM      30.10F
MONTGOMERY     PTSUNNY   83  61  47 CALM      30.08F
WHITE PLAINS   MOSUNNY   83  53  35 VRB3      30.09F
ISLIP          PTSUNNY   82  54  37 S10       30.09F
NEW YORK CITY  PTSUNNY   88  57  34 SW7       30.07F
CENTRAL PARK   SUNNY     86  55  34 VRB3      30.11S
$$

NYZ005>009-017-018-044>046-055-056-261700-
CENTRAL


CITY           SKY/WX    TMP DP  RH WIND       PRES   REMARKS
FULTON         CLOUDY    81  61  50 E3        30.04F
SYRACUSE       CLOUDY    82  61  48 NE5       30.03F
ROME           MOSUNNY   81  58  45 VRB5      30.06F
ELMIRA         CLOUDY    79  59  50 CALM      30.07F
BINGHAMTON     MOSUNNY   77  53  43 S7        30.11F
MONTICELLO     CLOUDY    79  57  47 S5        30.15S
$$

NYZ026>034-041>043-087-261700-
NORTH


CITY           SKY/WX    TMP DP  RH WIND       PRES   REMARKS
WATERTOWN      CLOUDY    79  57  46 VRB5      30.04F
FORT DRUM      NOT AVBL
MASSENA        MOSUNNY   73  48  41 NE13      30.10F
SARANAC LAKE   MOSUNNY   76  50  40 S9        30.10S
PLATTSBURGH    MOSUNNY   69  49  48 NE6       30.12S
$$

NYZ001>004-010>016-019>021-085-261700-
WEST


CITY           SKY/WX    TMP DP  RH WIND       PRES   REMARKS
NIAGARA FALLS  CLOUDY    80  60  50 S12       30.00F
BUFFALO        PTSUNNY   80  60  50 SW17      30.01F
DUNKIRK        CLOUDY    82  62  50 S17G24    30.01F
JAMESTOWN      CLOUDY    73  61  64 S13       30.07F
WELLSVILLE     CLOUDY    74  55  51 SW7       30.13F
ROCHESTER      CLOUDY    79  59  50 W5        30.03F
PENN YAN       PTSUNNY   82  54  37 S13       30.07S
$$

             KEY
       WCI = WIND CHILL INDEX
       VSB = VISIBILITY
       HX  = HEAT INDEX
$$




USA.gov is the U.S. government's official web portal to all federal, state and local government web resources and services.